User: anonymous   Login
Location: Allaines
(49.9632°N, 2.9458°E)
Time: 11:28:59
(UTC+00:00)
Language:

Meteor 2-3 Rocket - Orbit

View from above orbital plane
View from above orbital plane
View from above satellite
View from above satellite

Ground track
Ground track

The orbit data is extracted from the following two-line orbital elements,

1 10515U 77117B   20184.76898253 -.00000066 +00000-0 -45229-4 0  9998
2 10515 081.2469 278.4948 0027571 344.5141 015.5182 14.08720561186045
Epoch (UTC): 02 July 2020 18:27:20
Eccentricity: 0.0027571
inclination: 81.2469°
perigee height: 844 km
apogee height: 884 km
right ascension of ascending node: 278.4948°
argument of perigee: 344.5141°
revolutions per day: 14.08720561
mean anomaly at epoch: 15.5182°
orbit number at epoch: 18604

The dashed part of the orbit path shows where the satellite is in the earth's shadow,  

DLR